INTERCOSMOS 24

Satellite information

Favourite Embed

Satellite Type and Status

PAYLOADIN ORBIT

Key statistics

Satellite INTERCOSMOS 24 at a glance.

Uptime

13225

Days in orbit

Revolutions

≈ 12.6

Per day

Orbit

HEO

HEO

Inclination

82.6

Latest

Satellite identification and parameters

Extended collection of information and parameters for INTERCOSMOS 24.

Object identification

Identified? True

Debris? False

Object name: INTERCOSMOS 24

International designator: 1989-080A

Object number (NORAD): 20261

Object ID (CCSDS): 20261

Country: COMMONWEALTH OF INDEPENDENT STATES (CIS)

Current information (Y/N): Y

RCS size: LARGE

Orbital parameters

Period: 114.337 minutes

Inclination: 82.6043 deg

SMA: 7803.402 km

Apoapsis: 2352.967 km

Periapsis: 497.567 km

RAAN: 161.4665 deg

Eccentricy: 0.1188841

Argument of periapsis: 136.3518 deg

Mean anomaly: 233.8091 deg

Mean motion: 12.59437986 rev/day

Mean motion (dot): 0.00001479 rev/day2

B* drag term: 0.00042878 1/REarth

Two-line elements (TLE)

Creation date: Dec. 12, 2025, 7:16 a.m.

Reference frame: TEME

Reference center: EARTH

Epoch: Dec. 11, 2025, 10:47 p.m. UTC

TLE line 0: 0 INTERCOSMOS 24

TLE line 1: 1 20261U 89080A 25345.94979968 .00001479 00000-0 42878-3 0 9999

TLE line 2: 2 20261 82.6043 161.4665 1188841 136.3518 233.8091 12.59437986655751

Live tracking on map

Real-time ground track for satellite INTERCOSMOS 24.

In-orbit conjunctions

A list of the most updated potential collisions computed for object INTERCOSMOS 24.

Target Orbit TCA Probability of collision Miss distance Type
DELTA 1 DEB SSO 2025-04-22 21:08:56 0.000199699 364.0 (m) DEBRIS
PEGASUS DEB LEO 2025-04-06 16:30:34 0.0002245189 504.0 (m) DEBRIS
FENGYUN 1C DEB SSO 2025-03-22 23:57:29 0.000106885 747.0 (m) DEBRIS

Associated space launch

Scientific satellite studying the radiation properties of loop antennas in a plasma environment

INTERCOSMOS 24 was lifted into orbit during the mission ‘Tsiklon-3 | AUOS-Z-AV-IK 1’, on board a Tsiklon-3 space rocket.

The launch took place on Sept. 28, 1989, 12:04 a.m. from 32/2.

For more information about the launch, click the button.

Launch to space Tsiklon-3 | AUOS-Z-AV-IK 1
Tsiklon-3 | AUOS-Z-AV-IK 1

Agency: N/A

Status: Launch Successful

Launch date: Sept. 28, 1989, 12:04 a.m. UTC

Rocket: Tsiklon-3

Launch pad: 32/2

Location: Plesetsk Cosmodrome, Russian Federation

...

Latest news about this satellite

There are no fresh news available about this satellite. Check back as we update our databases every day.


Newsletter sign-up

Weekly statistics, charts and insights to help you stay on top of the space industry.